Regional Weather Roundup
Issued by NWS Goodland, KS

Home | Current Version | Previous Version | Text Only | Print | Product List | Glossary Off
Versions: 1 2 3 4 5 6 7 8 9 10 11 12 13 14 15 16 17 18 19 20 21 22 23 24 25 26 27 28 29 30 31 32 33 34 35 36 37 38 39 40 41 42 43 44 45 46 47 48 49 50

312
ASUS43 KGLD 091408
RWRGLD

GOODLAND FORECAST AREA HOURLY WEATHER ROUNDUP
NATIONAL WEATHER SERVICE GOODLAND KS
700 AM MST TUE FEB 09 2016

...OFFICIAL OBSERVATIONS...

CITY           SKY/WX    TMP DP  RH WIND       PRES   REMARKS
GOODLAND KS    CLEAR     32  24  72 NW13      30.23R
HILL CITY KS   CLOUDY    26  19  74 S6        30.26R
IMPERIAL NEB   CLEAR     27  21  78 NW9       30.25R
MCCOOK NEB     CLOUDY    28  18  66 NW6       30.25S
AKRON CO       CLOUDY    27  20  75 W17       30.27R WCI  14
BURLINGTON CO  CLEAR     30  20  66 W10       30.26R
LIMON CO       CLOUDY    24  16  71 NW6       30.32R
$$

...UNOFFICIAL OBSERVATIONS...

CITY           SKY/WX    TMP DP  RH WIND       PRES   REMARKS
COLBY KS       CLEAR     21  21 100 NW8       30.25R
GOVE KS          N/A     23  32 100 MISG        N/A
LENORA KS        N/A     28  32 100 MISG        N/A
NORTON KS      MOCLDY    28  18  64 NW6       30.25R
SHARON SPRINGS   N/A     34  26  71 NW16        N/A
KIT CARSON CO    N/A     29  22  74 MISG        N/A
YUMA CO          N/A     30  24  77 NW14        N/A  WCI  19
$$




USA.gov is the U.S. government's official web portal to all federal, state and local government web resources and services.